Back to catalog

STARLINK-36585

AliveCommunicationsSSO
NORAD 67540·PAYLOAD·🇺🇸 United States

Launched Jan 22, 2026 from Vandenberg Space Force Base

Loading…

Next Passes (next 24 hours)

TLE

FreshSource: CelesTrak SupGP

Epoch: Sep 14, 2026, 14:36 UTC

1 67540C 26014J   26257.60881944  .00031427  00000+0  97556-3 0  2575
2 67540  97.2843 143.0621 0001925  85.0461 350.1730 15.33423185    10

Track STARLINK-36585 in real time with AllMySat

Download on the App Store